Time,TemperatureF,DewpointF,PressureIn,WindDirection,WindDirectionDegrees,WindSpeedMPH,WindSpeedGustMPH,Humidity,HourlyPrecipIn,Conditions,Clouds,dailyrainin,SoftwareType,DateUTC
2013-08-03 00:01:00,68.4,61.6,29.94,NNW,342,0.0,0.0,79,0.00,,---,0.00,VWS V13.01,2013-08-03 05:01:00,
2013-08-03 00:06:00,68.1,61.7,29.94,NNW,342,0.0,0.0,80,0.00,,---,0.00,VWS V13.01,2013-08-03 05:06:00,
2013-08-03 00:11:00,67.7,62.0,29.94,NNW,342,0.0,0.0,82,0.00,,---,0.00,VWS V13.01,2013-08-03 05:11:00,
2013-08-03 00:16:00,67.4,62.4,29.94,NNW,342,0.0,0.0,84,0.00,,---,0.00,VWS V13.01,2013-08-03 05:16:00,
2013-08-03 00:21:00,67.2,62.2,29.94,NNW,342,0.0,0.0,84,0.00,,---,0.00,VWS V13.01,2013-08-03 05:21:00,
2013-08-03 00:26:00,67.2,61.9,29.94,NNW,342,0.0,0.0,83,0.00,,---,0.00,VWS V13.01,2013-08-03 05:26:00,
2013-08-03 00:31:00,67.4,62.1,29.94,NNW,342,0.0,0.0,83,0.00,,---,0.00,VWS V13.01,2013-08-03 05:31:00,
2013-08-03 00:36:00,67.6,61.9,29.94,NNW,342,2.0,2.0,82,0.00,,---,0.00,VWS V13.01,2013-08-03 05:36:00,
2013-08-03 00:41:00,67.8,61.4,29.94,NNW,342,0.0,1.0,80,0.00,,---,0.00,VWS V13.01,2013-08-03 05:41:00,
2013-08-03 00:46:00,68.0,61.6,29.95,NNW,342,0.0,1.0,80,0.00,,---,0.00,VWS V13.01,2013-08-03 05:46:00,
2013-08-03 00:51:00,68.1,61.3,29.95,NNW,342,0.0,2.0,79,0.00,,---,0.00,VWS V13.01,2013-08-03 05:51:00,
2013-08-03 00:56:00,67.9,61.2,29.94,NNW,342,0.0,2.0,79,0.00,,---,0.00,VWS V13.01,2013-08-03 05:56:00,
2013-08-03 01:01:00,67.7,61.0,29.94,NNW,342,0.0,0.0,79,0.00,,---,0.00,VWS V13.01,2013-08-03 06:01:00,
2013-08-03 01:06:00,67.5,60.8,29.94,NNW,342,0.0,0.0,79,0.00,,---,0.00,VWS V13.01,2013-08-03 06:06:00,
2013-08-03 01:11:00,67.5,60.8,29.95,NNW,342,0.0,0.0,79,0.00,,---,0.00,VWS V13.01,2013-08-03 06:11:00,
2013-08-03 01:16:00,67.4,60.3,29.95,NNW,342,0.0,0.0,78,0.00,,---,0.00,VWS V13.01,2013-08-03 06:16:00,
2013-08-03 01:21:00,67.5,60.4,29.95,NNW,342,0.0,2.0,78,0.00,,---,0.00,VWS V13.01,2013-08-03 06:21:00,
2013-08-03 01:26:00,67.4,60.3,29.95,NNW,341,3.0,3.0,78,0.00,,---,0.00,VWS V13.01,2013-08-03 06:26:00,
2013-08-03 01:31:00,67.4,60.3,29.95,NNW,341,2.0,3.0,78,0.00,,---,0.00,VWS V13.01,2013-08-03 06:31:00,
2013-08-03 01:36:00,67.4,60.3,29.95,NNW,341,4.0,4.0,78,0.00,,---,0.00,VWS V13.01,2013-08-03 06:36:00,
2013-08-03 01:41:00,67.3,60.6,29.95,NNW,341,2.0,2.0,79,0.00,,---,0.00,VWS V13.01,2013-08-03 06:41:00,
2013-08-03 01:46:00,67.1,60.4,29.95,NNW,341,1.0,2.0,79,0.00,,---,0.00,VWS V13.01,2013-08-03 06:46:00,
2013-08-03 01:51:00,67.0,60.6,29.95,NNW,341,0.0,2.0,80,0.00,,---,0.00,VWS V13.01,2013-08-03 06:51:00,
2013-08-03 01:56:00,66.9,60.5,29.95,NNW,341,0.0,2.0,80,0.00,,---,0.00,VWS V13.01,2013-08-03 06:56:00,
2013-08-03 02:01:00,66.8,60.4,29.95,NNW,341,1.0,3.0,80,0.00,,---,0.00,VWS V13.01,2013-08-03 07:01:00,
2013-08-03 02:06:00,66.8,60.4,29.95,NNW,341,0.0,3.0,80,0.00,,---,0.00,VWS V13.01,2013-08-03 07:06:00,
2013-08-03 02:11:00,66.7,60.0,29.96,NNW,341,0.0,2.0,79,0.00,,---,0.00,VWS V13.01,2013-08-03 07:11:00,
2013-08-03 02:16:00,66.6,59.9,29.96,NNW,341,0.0,3.0,79,0.00,,---,0.00,VWS V13.01,2013-08-03 07:16:00,
2013-08-03 02:21:00,66.6,59.9,29.96,NNW,341,1.0,1.0,79,0.00,,---,0.00,VWS V13.01,2013-08-03 07:21:00,
2013-08-03 02:26:00,66.6,59.9,29.96,NNW,341,0.0,2.0,79,0.00,,---,0.00,VWS V13.01,2013-08-03 07:26:00,
2013-08-03 02:31:00,66.5,59.8,29.96,NNW,341,0.0,2.0,79,0.00,,---,0.00,VWS V13.01,2013-08-03 07:31:00,
2013-08-03 02:36:00,66.5,59.4,29.96,NNW,341,0.0,3.0,78,0.00,,---,0.00,VWS V13.01,2013-08-03 07:36:00,
2013-08-03 02:41:00,66.4,59.3,29.96,NNW,333,2.0,3.0,78,0.00,,---,0.00,VWS V13.01,2013-08-03 07:41:00,
2013-08-03 02:45:00,66.4,59.0,29.97,NNW,333,3.0,3.0,77,0.00,,---,0.00,VWS V13.01,2013-08-03 07:45:00,
2013-08-03 02:50:00,66.4,59.0,29.97,NNW,333,2.0,4.0,77,0.00,,---,0.00,VWS V13.01,2013-08-03 07:50:00,
2013-08-03 02:56:00,66.5,59.1,29.97,NNW,333,0.0,4.0,77,0.00,,---,0.00,VWS V13.01,2013-08-03 07:56:00,
2013-08-03 03:00:00,66.3,58.9,29.97,NNW,333,1.0,3.0,77,0.00,,---,0.00,VWS V13.01,2013-08-03 08:00:00,
2013-08-03 03:06:00,66.3,58.5,29.97,NNW,335,0.0,4.0,76,0.00,,---,0.00,VWS V13.01,2013-08-03 08:06:00,
2013-08-03 03:11:00,66.3,58.5,29.97,NNW,342,2.0,4.0,76,0.00,,---,0.00,VWS V13.01,2013-08-03 08:11:00,
2013-08-03 03:15:00,66.2,58.4,29.97,NNW,342,1.0,4.0,76,0.00,,---,0.00,VWS V13.01,2013-08-03 08:15:00,
2013-08-03 03:20:00,66.1,58.3,29.97,NNW,342,1.0,3.0,76,0.00,,---,0.00,VWS V13.01,2013-08-03 08:20:00,
2013-08-03 03:26:00,66.1,58.3,29.97,NNW,342,0.0,4.0,76,0.00,,---,0.00,VWS V13.01,2013-08-03 08:26:00,
2013-08-03 03:31:00,66.1,58.3,29.97,NNW,342,1.0,3.0,76,0.00,,---,0.00,VWS V13.01,2013-08-03 08:31:00,
2013-08-03 03:36:00,66.1,58.3,29.97,NNW,342,3.0,3.0,76,0.00,,---,0.00,VWS V13.01,2013-08-03 08:36:00,
2013-08-03 03:41:00,66.1,58.3,29.97,NNW,342,1.0,3.0,76,0.00,,---,0.00,VWS V13.01,2013-08-03 08:41:00,
2013-08-03 03:45:00,66.0,58.2,29.97,NNW,342,1.0,3.0,76,0.00,,---,0.00,VWS V13.01,2013-08-03 08:45:00,
2013-08-03 03:51:00,65.9,58.1,29.96,NNW,339,2.0,3.0,76,0.00,,---,0.00,VWS V13.01,2013-08-03 08:51:00,
2013-08-03 03:55:00,65.7,57.9,29.96,NNW,339,1.0,3.0,76,0.00,,---,0.00,VWS V13.01,2013-08-03 08:55:00,
2013-08-03 04:01:00,65.4,57.7,29.96,NNW,339,1.0,3.0,76,0.00,,---,0.00,VWS V13.01,2013-08-03 09:01:00,
2013-08-03 04:06:00,65.2,57.5,29.96,NNW,339,2.0,3.0,76,0.00,,---,0.00,VWS V13.01,2013-08-03 09:06:00,
2013-08-03 04:11:00,64.8,57.4,29.96,NNW,339,0.0,2.0,77,0.00,,---,0.00,VWS V13.01,2013-08-03 09:11:00,
2013-08-03 04:16:00,64.5,57.5,29.97,NNW,339,0.0,2.0,78,0.00,,---,0.00,VWS V13.01,2013-08-03 09:16:00,
2013-08-03 04:21:00,64.1,57.5,29.97,NNW,339,1.0,3.0,79,0.00,,---,0.00,VWS V13.01,2013-08-03 09:21:00,
2013-08-03 04:26:00,63.9,57.3,29.97,NNW,339,0.0,3.0,79,0.00,,---,0.00,VWS V13.01,2013-08-03 09:26:00,
2013-08-03 04:31:00,63.5,57.2,29.97,NNW,339,0.0,2.0,80,0.00,,---,0.00,VWS V13.01,2013-08-03 09:31:00,
2013-08-03 04:36:00,63.2,57.3,29.97,NNW,339,3.0,3.0,81,0.00,,---,0.00,VWS V13.01,2013-08-03 09:36:00,
2013-08-03 04:41:00,63.0,57.1,29.97,NNW,339,0.0,2.0,81,0.00,,---,0.00,VWS V13.01,2013-08-03 09:41:00,
2013-08-03 04:45:00,62.8,56.9,29.97,NNW,339,1.0,2.0,81,0.00,,---,0.00,VWS V13.01,2013-08-03 09:45:00,
2013-08-03 04:50:00,62.6,57.0,29.97,NNW,339,1.0,2.0,82,0.00,,---,0.00,VWS V13.01,2013-08-03 09:50:00,
2013-08-03 04:55:00,62.4,56.8,29.97,NNW,339,0.0,2.0,82,0.00,,---,0.00,VWS V13.01,2013-08-03 09:55:00,
2013-08-03 05:00:00,62.1,56.9,29.97,NNW,339,1.0,2.0,83,0.00,,---,0.00,VWS V13.01,2013-08-03 10:00:00,
2013-08-03 05:05:00,61.9,56.7,29.98,NNW,339,0.0,2.0,83,0.00,,---,0.00,VWS V13.01,2013-08-03 10:05:00,
2013-08-03 05:10:00,61.7,56.8,29.98,NNW,339,0.0,2.0,84,0.00,,---,0.00,VWS V13.01,2013-08-03 10:10:00,
2013-08-03 05:15:00,61.5,56.6,29.98,NNW,339,0.0,2.0,84,0.00,,---,0.00,VWS V13.01,2013-08-03 10:15:00,
2013-08-03 05:20:00,61.2,56.7,29.98,NNW,339,0.0,2.0,85,0.00,,---,0.00,VWS V13.01,2013-08-03 10:20:00,
2013-08-03 05:25:00,61.0,56.5,29.98,NNW,339,0.0,2.0,85,0.00,,---,0.00,VWS V13.01,2013-08-03 10:25:00,
2013-08-03 05:30:00,60.8,56.3,29.98,NNW,339,0.0,1.0,85,0.00,,---,0.00,VWS V13.01,2013-08-03 10:30:00,
2013-08-03 05:35:00,60.5,56.3,29.98,NNW,339,0.0,1.0,86,0.00,,---,0.00,VWS V13.01,2013-08-03 10:35:00,
2013-08-03 05:40:00,60.4,56.2,29.98,NNW,339,0.0,0.0,86,0.00,,---,0.00,VWS V13.01,2013-08-03 10:40:00,
2013-08-03 05:45:00,60.3,56.1,29.98,NNW,339,0.0,0.0,86,0.00,,---,0.00,VWS V13.01,2013-08-03 10:45:00,
2013-08-03 05:50:00,60.1,55.9,29.98,NNW,339,0.0,0.0,86,0.00,,---,0.00,VWS V13.01,2013-08-03 10:50:00,
2013-08-03 05:55:00,60.0,56.1,29.98,NNW,339,0.0,0.0,87,0.00,,---,0.00,VWS V13.01,2013-08-03 10:55:00,
2013-08-03 06:00:00,59.9,56.0,29.98,NNW,339,0.0,0.0,87,0.00,,---,0.00,VWS V13.01,2013-08-03 11:00:00,
2013-08-03 06:05:00,59.8,55.9,29.99,NNW,339,0.0,0.0,87,0.00,,---,0.00,VWS V13.01,2013-08-03 11:05:00,
2013-08-03 06:10:00,59.9,56.0,29.99,NNW,339,0.0,0.0,87,0.00,,---,0.00,VWS V13.01,2013-08-03 11:10:00,
2013-08-03 06:15:00,59.8,55.9,29.99,NNW,339,0.0,0.0,87,0.00,,---,0.00,VWS V13.01,2013-08-03 11:15:00,
2013-08-03 06:20:00,59.7,55.8,29.99,NNW,339,0.0,1.0,87,0.00,,---,0.00,VWS V13.01,2013-08-03 11:20:00,
2013-08-03 06:25:00,59.8,55.9,29.99,NNW,339,0.0,1.0,87,0.00,,---,0.00,VWS V13.01,2013-08-03 11:25:00,
2013-08-03 06:30:00,59.9,56.0,29.99,NNW,339,0.0,0.0,87,0.00,,---,0.00,VWS V13.01,2013-08-03 11:30:00,
2013-08-03 06:35:00,60.1,55.9,29.99,NNW,339,0.0,1.0,86,0.00,,---,0.00,VWS V13.01,2013-08-03 11:35:00,
2013-08-03 06:40:00,60.3,56.1,30.00,NNW,339,0.0,1.0,86,0.00,,---,0.00,VWS V13.01,2013-08-03 11:40:00,
2013-08-03 06:45:00,60.6,56.1,30.00,NNW,339,0.0,1.0,85,0.00,,---,0.00,VWS V13.01,2013-08-03 11:45:00,
2013-08-03 06:50:00,60.9,56.4,30.00,NNW,348,1.0,3.0,85,0.00,,---,0.00,VWS V13.01,2013-08-03 11:50:00,
2013-08-03 06:55:00,61.2,56.3,30.00,NNW,348,0.0,3.0,84,0.00,,---,0.00,VWS V13.01,2013-08-03 11:55:00,
2013-08-03 07:00:00,61.4,56.5,30.00,NNW,348,0.0,0.0,84,0.00,,---,0.00,VWS V13.01,2013-08-03 12:00:00,
2013-08-03 07:05:00,61.7,56.5,30.00,NNW,348,1.0,2.0,83,0.00,,---,0.00,VWS V13.01,2013-08-03 12:05:00,
2013-08-03 07:10:00,62.0,56.8,30.00,NNW,348,0.0,1.0,83,0.00,,---,0.00,VWS V13.01,2013-08-03 12:10:00,
2013-08-03 07:15:00,62.3,57.1,30.00,NNW,348,2.0,2.0,83,0.00,,---,0.00,VWS V13.01,2013-08-03 12:15:00,
2013-08-03 07:20:00,62.6,57.0,30.00,NNW,348,1.0,2.0,82,0.00,,---,0.00,VWS V13.01,2013-08-03 12:20:00,
2013-08-03 07:25:00,63.0,57.4,30.01,North,349,0.0,2.0,82,0.00,,---,0.00,VWS V13.01,2013-08-03 12:25:00,
2013-08-03 07:30:00,63.4,57.5,30.01,North,350,1.0,2.0,81,0.00,,---,0.00,VWS V13.01,2013-08-03 12:30:00,
2013-08-03 07:35:00,63.8,57.5,30.00,North,5,2.0,3.0,80,0.00,,---,0.00,VWS V13.01,2013-08-03 12:35:00,
2013-08-03 07:40:00,64.2,57.9,30.01,North,5,0.0,2.0,80,0.00,,---,0.00,VWS V13.01,2013-08-03 12:40:00,
2013-08-03 07:45:00,64.6,58.0,30.01,North,5,1.0,2.0,79,0.00,,---,0.00,VWS V13.01,2013-08-03 12:45:00,
2013-08-03 07:50:00,64.9,57.9,30.00,North,5,1.0,2.0,78,0.00,,---,0.00,VWS V13.01,2013-08-03 12:50:00,
2013-08-03 07:55:00,65.4,58.4,30.01,North,5,0.0,3.0,78,0.00,,---,0.00,VWS V13.01,2013-08-03 12:55:00,
2013-08-03 08:00:00,65.7,58.3,30.01,North,5,0.0,2.0,77,0.00,,---,0.00,VWS V13.01,2013-08-03 13:00:00,
2013-08-03 08:05:00,66.2,58.8,30.01,North,5,2.0,3.0,77,0.00,,---,0.00,VWS V13.01,2013-08-03 13:05:00,
2013-08-03 08:10:00,66.7,58.2,30.01,North,11,0.0,2.0,74,0.00,,---,0.00,VWS V13.01,2013-08-03 13:10:00,
2013-08-03 08:15:00,67.3,58.4,30.01,NNW,337,1.0,3.0,73,0.00,,---,0.00,VWS V13.01,2013-08-03 13:15:00,
2013-08-03 08:20:00,67.6,58.3,30.02,NNW,337,1.0,2.0,72,0.00,,---,0.00,VWS V13.01,2013-08-03 13:20:00,
2013-08-03 08:25:00,67.9,57.8,30.02,North,5,0.0,3.0,70,0.00,,---,0.00,VWS V13.01,2013-08-03 13:25:00,
2013-08-03 08:30:00,68.6,58.4,30.02,ENE,62,1.0,3.0,70,0.00,,---,0.00,VWS V13.01,2013-08-03 13:30:00,
2013-08-03 08:35:00,68.8,57.8,30.02,NE,53,0.0,3.0,68,0.00,,---,0.00,VWS V13.01,2013-08-03 13:35:00,
2013-08-03 08:40:00,69.3,57.9,30.02,NE,53,2.0,2.0,67,0.00,,---,0.00,VWS V13.01,2013-08-03 13:40:00,
2013-08-03 08:45:00,69.4,59.2,30.02,ENE,65,0.0,2.0,70,0.00,,---,0.00,VWS V13.01,2013-08-03 13:45:00,
2013-08-03 08:50:00,69.8,58.8,30.02,ESE,111,0.0,2.0,68,0.00,,---,0.00,VWS V13.01,2013-08-03 13:50:00,
2013-08-03 08:55:00,70.1,57.8,30.02,ENE,57,0.0,4.0,65,0.00,,---,0.00,VWS V13.01,2013-08-03 13:55:00,
2013-08-03 09:00:00,70.2,57.5,30.03,NE,49,0.0,2.0,64,0.00,,---,0.00,VWS V13.01,2013-08-03 14:00:00,
2013-08-03 09:05:00,70.7,57.9,30.03,NW,313,3.0,4.0,64,0.00,,---,0.00,VWS V13.01,2013-08-03 14:05:00,
2013-08-03 09:10:00,71.1,58.3,30.03,NNE,32,1.0,3.0,64,0.00,,---,0.00,VWS V13.01,2013-08-03 14:10:00,
2013-08-03 09:15:00,71.0,57.8,30.03,NNW,328,1.0,4.0,63,0.00,,---,0.00,VWS V13.01,2013-08-03 14:15:00,
2013-08-03 09:20:00,71.5,59.6,30.03,NNW,331,0.0,1.0,66,0.00,,---,0.00,VWS V13.01,2013-08-03 14:20:00,
2013-08-03 09:25:00,71.8,58.1,30.03,NNW,346,3.0,3.0,62,0.00,,---,0.00,VWS V13.01,2013-08-03 14:25:00,
2013-08-03 09:30:00,72.1,57.5,30.03,NNW,331,2.0,2.0,60,0.00,,---,0.00,VWS V13.01,2013-08-03 14:30:00,
2013-08-03 09:35:00,72.2,57.1,30.03,NNW,336,1.0,3.0,59,0.00,,---,0.00,VWS V13.01,2013-08-03 14:35:00,
2013-08-03 09:40:00,72.1,57.5,30.03,NNW,346,3.0,4.0,60,0.00,,---,0.00,VWS V13.01,2013-08-03 14:40:00,
2013-08-03 09:45:00,72.4,56.3,30.03,NE,46,0.0,6.0,57,0.00,,---,0.00,VWS V13.01,2013-08-03 14:45:00,
2013-08-03 09:50:00,72.5,56.4,30.03,ENE,67,2.0,2.0,57,0.00,,---,0.00,VWS V13.01,2013-08-03 14:50:00,
2013-08-03 09:55:00,72.7,57.1,30.03,North,5,0.0,4.0,58,0.00,,---,0.00,VWS V13.01,2013-08-03 14:55:00,
2013-08-03 10:00:00,72.9,56.3,30.04,North,355,1.0,4.0,56,0.00,,---,0.00,VWS V13.01,2013-08-03 15:00:00,
2013-08-03 10:05:00,72.8,57.2,30.04,North,5,0.0,4.0,58,0.00,,---,0.00,VWS V13.01,2013-08-03 15:05:00,
2013-08-03 10:10:00,72.9,56.3,30.04,East,80,0.0,4.0,56,0.00,,---,0.00,VWS V13.01,2013-08-03 15:10:00,
2013-08-03 10:15:00,73.3,56.2,30.04,NNW,342,2.0,6.0,55,0.00,,---,0.00,VWS V13.01,2013-08-03 15:15:00,
2013-08-03 10:20:00,73.3,56.7,30.04,ENE,75,1.0,2.0,56,0.00,,---,0.00,VWS V13.01,2013-08-03 15:20:00,
2013-08-03 10:25:00,73.6,57.4,30.05,WNW,286,1.0,3.0,57,0.00,,---,0.00,VWS V13.01,2013-08-03 15:25:00,
2013-08-03 10:30:00,73.6,56.5,30.05,NW,312,0.0,3.0,55,0.00,,---,0.00,VWS V13.01,2013-08-03 15:30:00,
2013-08-03 10:35:00,73.4,55.2,30.05,ENE,64,0.0,3.0,53,0.00,,---,0.00,VWS V13.01,2013-08-03 15:35:00,
2013-08-03 10:40:00,73.5,57.3,30.05,NNE,16,2.0,5.0,57,0.00,,---,0.00,VWS V13.01,2013-08-03 15:40:00,
2013-08-03 10:45:00,73.7,58.5,30.05,East,83,2.0,5.0,59,0.00,,---,0.00,VWS V13.01,2013-08-03 15:45:00,
2013-08-03 10:50:00,73.8,56.1,30.06,NNE,23,1.0,3.0,54,0.00,,---,0.00,VWS V13.01,2013-08-03 15:50:00,
2013-08-03 10:55:00,73.8,56.1,30.06,ENE,60,3.0,6.0,54,0.00,,---,0.00,VWS V13.01,2013-08-03 15:55:00,
2013-08-03 11:00:00,73.9,56.2,30.05,North,5,3.0,6.0,54,0.00,,---,0.00,VWS V13.01,2013-08-03 16:00:00,
2013-08-03 11:05:00,73.9,55.2,30.05,SSW,209,4.0,7.0,52,0.00,,---,0.00,VWS V13.01,2013-08-03 16:05:00,
2013-08-03 11:10:00,74.4,55.1,30.06,NNW,342,4.0,7.0,51,0.00,,---,0.00,VWS V13.01,2013-08-03 16:10:00,
2013-08-03 11:15:00,74.3,55.0,30.06,NE,53,1.0,7.0,51,0.00,,---,0.00,VWS V13.01,2013-08-03 16:15:00,
2013-08-03 11:20:00,74.9,55.6,30.06,NE,46,2.0,4.0,51,0.00,,---,0.00,VWS V13.01,2013-08-03 16:20:00,
2013-08-03 11:25:00,74.6,54.2,30.06,NNW,335,4.0,6.0,49,0.00,,---,0.00,VWS V13.01,2013-08-03 16:25:00,
2013-08-03 11:30:00,74.6,54.8,30.05,NNW,338,4.0,5.0,50,0.00,,---,0.00,VWS V13.01,2013-08-03 16:30:00,
2013-08-03 11:35:00,74.9,54.5,30.06,NW,325,3.0,6.0,49,0.00,,---,0.00,VWS V13.01,2013-08-03 16:35:00,
2013-08-03 11:40:00,74.6,54.8,30.06,NNW,330,3.0,6.0,50,0.00,,---,0.00,VWS V13.01,2013-08-03 16:40:00,
2013-08-03 11:45:00,74.9,54.5,30.06,NNW,329,5.0,6.0,49,0.00,,---,0.00,VWS V13.01,2013-08-03 16:45:00,
2013-08-03 11:50:00,74.8,54.9,30.06,ENE,67,3.0,4.0,50,0.00,,---,0.00,VWS V13.01,2013-08-03 16:50:00,
2013-08-03 11:55:00,75.2,55.8,30.06,North,350,1.0,6.0,51,0.00,,---,0.00,VWS V13.01,2013-08-03 16:55:00,
2013-08-03 12:00:00,75.0,53.4,30.05,WNW,284,1.0,6.0,47,0.00,,---,0.00,VWS V13.01,2013-08-03 17:00:00,
2013-08-03 12:05:00,74.9,53.9,30.06,NNW,340,2.0,6.0,48,0.00,,---,0.00,VWS V13.01,2013-08-03 17:05:00,
2013-08-03 12:10:00,74.9,53.3,30.06,NE,56,0.0,3.0,47,0.00,,---,0.00,VWS V13.01,2013-08-03 17:10:00,
2013-08-03 12:15:00,75.3,55.4,30.06,WNW,290,2.0,7.0,50,0.00,,---,0.00,VWS V13.01,2013-08-03 17:15:00,
2013-08-03 12:20:00,75.5,56.1,30.06,East,83,3.0,4.0,51,0.00,,---,0.00,VWS V13.01,2013-08-03 17:20:00,
2013-08-03 12:25:00,75.7,56.3,30.06,NNW,346,6.0,9.0,51,0.00,,---,0.00,VWS V13.01,2013-08-03 17:25:00,
2013-08-03 12:30:00,75.7,54.6,30.06,North,355,1.0,7.0,48,0.00,,---,0.00,VWS V13.01,2013-08-03 17:30:00,
2013-08-03 12:35:00,75.3,54.3,30.05,North,349,1.0,7.0,48,0.00,,---,0.00,VWS V13.01,2013-08-03 17:35:00,
2013-08-03 12:40:00,75.8,55.9,30.06,NE,53,1.0,5.0,50,0.00,,---,0.00,VWS V13.01,2013-08-03 17:40:00,
2013-08-03 12:45:00,75.7,54.1,30.06,North,355,1.0,7.0,47,0.00,,---,0.00,VWS V13.01,2013-08-03 17:45:00,
2013-08-03 12:50:00,75.4,53.8,30.06,NNW,341,2.0,7.0,47,0.00,,---,0.00,VWS V13.01,2013-08-03 17:50:00,
2013-08-03 12:55:00,75.9,55.4,30.06,NE,44,2.0,7.0,49,0.00,,---,0.00,VWS V13.01,2013-08-03 17:55:00,
2013-08-03 13:00:00,76.2,56.2,30.05,North,350,5.0,5.0,50,0.00,,---,0.00,VWS V13.01,2013-08-03 18:00:00,
2013-08-03 13:05:00,75.9,54.8,30.05,NNE,26,1.0,8.0,48,0.00,,---,0.00,VWS V13.01,2013-08-03 18:05:00,
2013-08-03 13:10:00,75.9,56.0,30.06,NNW,334,2.0,9.0,50,0.00,,---,0.00,VWS V13.01,2013-08-03 18:10:00,
2013-08-03 13:15:00,75.9,53.7,30.06,NNW,338,7.0,9.0,46,0.00,,---,0.00,VWS V13.01,2013-08-03 18:15:00,
2013-08-03 13:20:00,76.1,55.6,30.06,NNW,334,6.0,7.0,49,0.00,,---,0.00,VWS V13.01,2013-08-03 18:20:00,
2013-08-03 13:25:00,76.1,54.4,30.07,North,360,5.0,10.0,47,0.00,,---,0.00,VWS V13.01,2013-08-03 18:25:00,
2013-08-03 13:30:00,75.9,56.5,30.06,NNW,338,3.0,4.0,51,0.00,,---,0.00,VWS V13.01,2013-08-03 18:30:00,
2013-08-03 13:35:00,75.7,52.9,30.07,ENE,57,4.0,9.0,45,0.00,,---,0.00,VWS V13.01,2013-08-03 18:35:00,
2013-08-03 13:40:00,75.8,54.7,30.07,NNW,338,5.0,5.0,48,0.00,,---,0.00,VWS V13.01,2013-08-03 18:40:00,
2013-08-03 13:45:00,76.3,53.4,30.06,NNW,335,4.0,12.0,45,0.00,,---,0.00,VWS V13.01,2013-08-03 18:45:00,
2013-08-03 13:50:00,76.3,53.4,30.06,NW,320,4.0,6.0,45,0.00,,---,0.00,VWS V13.01,2013-08-03 18:50:00,
2013-08-03 13:55:00,75.9,52.5,30.06,ENE,68,1.0,6.0,44,0.00,,---,0.00,VWS V13.01,2013-08-03 18:55:00,
2013-08-03 14:00:00,76.1,52.0,30.07,ENE,63,2.0,4.0,43,0.00,,---,0.00,VWS V13.01,2013-08-03 19:00:00,
2013-08-03 14:05:00,76.3,52.8,30.07,NNW,329,2.0,4.0,44,0.00,,---,0.00,VWS V13.01,2013-08-03 19:05:00,
2013-08-03 14:10:00,76.3,52.2,30.06,NE,35,0.0,5.0,43,0.00,,---,0.00,VWS V13.01,2013-08-03 19:10:00,
2013-08-03 14:15:00,76.6,53.1,30.06,North,5,2.0,7.0,44,0.00,,---,0.00,VWS V13.01,2013-08-03 19:15:00,
2013-08-03 14:20:00,76.4,52.3,30.06,NNW,331,2.0,5.0,43,0.00,,---,0.00,VWS V13.01,2013-08-03 19:20:00,
2013-08-03 14:25:00,76.7,55.5,30.06,NW,325,1.0,5.0,48,0.00,,---,0.00,VWS V13.01,2013-08-03 19:25:00,
2013-08-03 14:30:00,76.8,52.6,30.06,ENE,69,2.0,8.0,43,0.00,,---,0.00,VWS V13.01,2013-08-03 19:30:00,
2013-08-03 14:35:00,76.3,52.8,30.07,North,5,2.0,9.0,44,0.00,,---,0.00,VWS V13.01,2013-08-03 19:35:00,
2013-08-03 14:40:00,76.3,54.6,30.07,NW,317,2.0,5.0,47,0.00,,---,0.00,VWS V13.01,2013-08-03 19:40:00,
2013-08-03 14:45:00,76.4,52.9,30.07,North,11,3.0,7.0,44,0.00,,---,0.00,VWS V13.01,2013-08-03 19:45:00,
2013-08-03 14:50:00,76.3,52.8,30.07,NW,309,3.0,8.0,44,0.00,,---,0.00,VWS V13.01,2013-08-03 19:50:00,
2013-08-03 14:55:00,75.8,53.6,30.07,North,360,1.0,8.0,46,0.00,,---,0.00,VWS V13.01,2013-08-03 19:55:00,
2013-08-03 15:00:00,76.1,52.6,30.06,NNE,22,1.0,6.0,44,0.00,,---,0.00,VWS V13.01,2013-08-03 20:00:00,
2013-08-03 15:05:00,76.2,54.5,30.06,NNE,19,3.0,6.0,47,0.00,,---,0.00,VWS V13.01,2013-08-03 20:05:00,
2013-08-03 15:10:00,76.8,55.7,30.06,North,10,1.0,4.0,48,0.00,,---,0.00,VWS V13.01,2013-08-03 20:10:00,
2013-08-03 15:15:00,77.0,55.2,30.06,NE,40,2.0,4.0,47,0.00,,---,0.00,VWS V13.01,2013-08-03 20:15:00,
2013-08-03 15:20:00,77.3,54.3,30.06,NNE,19,2.0,5.0,45,0.00,,---,0.00,VWS V13.01,2013-08-03 20:20:00,
2013-08-03 15:25:00,76.2,52.7,30.06,North,355,1.0,9.0,44,0.00,,---,0.00,VWS V13.01,2013-08-03 20:25:00,
2013-08-03 15:30:00,75.3,52.5,30.06,WNW,302,3.0,6.0,45,0.00,,---,0.00,VWS V13.01,2013-08-03 20:30:00,
2013-08-03 15:35:00,76.1,53.8,30.06,North,355,1.0,6.0,46,0.00,,---,0.00,VWS V13.01,2013-08-03 20:35:00,
2013-08-03 15:40:00,76.5,54.2,30.07,ESE,117,4.0,8.0,46,0.00,,---,0.00,VWS V13.01,2013-08-03 20:40:00,
2013-08-03 15:45:00,75.6,54.0,30.06,NNW,331,1.0,12.0,47,0.00,,---,0.00,VWS V13.01,2013-08-03 20:45:00,
2013-08-03 15:50:00,75.5,53.9,30.06,East,96,1.0,6.0,47,0.00,,---,0.00,VWS V13.01,2013-08-03 20:50:00,
2013-08-03 15:55:00,76.3,56.3,30.06,WNW,300,1.0,7.0,50,0.00,,---,0.00,VWS V13.01,2013-08-03 20:55:00,
2013-08-03 16:00:00,76.6,55.5,30.06,NNW,328,2.0,6.0,48,0.00,,---,0.00,VWS V13.01,2013-08-03 21:00:00,
2013-08-03 16:06:00,76.3,54.6,30.06,North,355,1.0,9.0,47,0.00,,---,0.00,VWS V13.01,2013-08-03 21:06:00,
2013-08-03 16:11:00,75.0,54.6,30.06,NNW,333,2.0,6.0,49,0.00,,---,0.00,VWS V13.01,2013-08-03 21:11:00,
2013-08-03 16:16:00,75.7,53.5,30.06,North,351,5.0,10.0,46,0.00,,---,0.00,VWS V13.01,2013-08-03 21:16:00,
2013-08-03 16:21:00,75.5,53.9,30.07,NNW,329,4.0,7.0,47,0.00,,---,0.00,VWS V13.01,2013-08-03 21:21:00,
2013-08-03 16:26:00,74.3,54.5,30.06,North,351,3.0,7.0,50,0.00,,---,0.00,VWS V13.01,2013-08-03 21:26:00,
2013-08-03 16:31:00,75.3,55.4,30.06,ENE,67,1.0,8.0,50,0.00,,---,0.00,VWS V13.01,2013-08-03 21:31:00,
2013-08-03 16:36:00,76.3,55.2,30.05,WNW,302,2.0,8.0,48,0.00,,---,0.00,VWS V13.01,2013-08-03 21:36:00,
2013-08-03 16:41:00,76.3,56.3,30.06,NNW,346,5.0,10.0,50,0.00,,---,0.00,VWS V13.01,2013-08-03 21:41:00,
2013-08-03 16:46:00,76.5,54.2,30.06,North,9,2.0,10.0,46,0.00,,---,0.00,VWS V13.01,2013-08-03 21:46:00,
2013-08-03 16:50:00,76.4,55.3,30.06,NNW,344,6.0,6.0,48,0.00,,---,0.00,VWS V13.01,2013-08-03 21:50:00,
2013-08-03 16:56:00,76.2,53.3,30.05,NW,321,0.0,11.0,45,0.00,,---,0.00,VWS V13.01,2013-08-03 21:56:00,
2013-08-03 17:01:00,76.2,54.5,30.05,NE,56,3.0,4.0,47,0.00,,---,0.00,VWS V13.01,2013-08-03 22:01:00,
2013-08-03 17:06:00,75.5,54.5,30.05,NNW,342,4.0,7.0,48,0.00,,---,0.00,VWS V13.01,2013-08-03 22:06:00,
2013-08-03 17:11:00,75.9,54.8,30.05,NW,321,2.0,5.0,48,0.00,,---,0.00,VWS V13.01,2013-08-03 22:11:00,
2013-08-03 17:16:00,75.6,56.8,30.05,NNW,334,0.0,5.0,52,0.00,,---,0.00,VWS V13.01,2013-08-03 22:16:00,
2013-08-03 17:20:00,75.8,56.4,30.05,NE,46,2.0,4.0,51,0.00,,---,0.00,VWS V13.01,2013-08-03 22:20:00,
2013-08-03 17:26:00,76.0,56.0,30.05,North,350,0.0,5.0,50,0.00,,---,0.00,VWS V13.01,2013-08-03 22:26:00,
2013-08-03 17:31:00,76.1,54.4,30.05,NNW,344,5.0,6.0,47,0.00,,---,0.00,VWS V13.01,2013-08-03 22:31:00,
2013-08-03 17:36:00,76.0,55.5,30.05,NE,55,2.0,6.0,49,0.00,,---,0.00,VWS V13.01,2013-08-03 22:36:00,
2013-08-03 17:41:00,75.8,55.9,30.05,NNW,333,3.0,3.0,50,0.00,,---,0.00,VWS V13.01,2013-08-03 22:41:00,
2013-08-03 17:46:00,75.7,55.2,30.05,NNW,345,3.0,5.0,49,0.00,,---,0.00,VWS V13.01,2013-08-03 22:46:00,
2013-08-03 17:51:00,75.5,54.5,30.06,NNW,331,2.0,8.0,48,0.00,,---,0.00,VWS V13.01,2013-08-03 22:51:00,
2013-08-03 17:56:00,75.5,54.5,30.06,NNW,336,3.0,8.0,48,0.00,,---,0.00,VWS V13.01,2013-08-03 22:56:00,
2013-08-03 18:01:00,75.3,54.3,30.05,NNW,336,2.0,5.0,48,0.00,,---,0.00,VWS V13.01,2013-08-03 23:01:00,
2013-08-03 18:06:00,75.2,54.2,30.06,NNW,333,4.0,5.0,48,0.00,,---,0.00,VWS V13.01,2013-08-03 23:06:00,
2013-08-03 18:11:00,75.0,54.6,30.06,NNW,334,1.0,6.0,49,0.00,,---,0.00,VWS V13.01,2013-08-03 23:11:00,
2013-08-03 18:16:00,75.0,54.6,30.06,NNW,336,2.0,6.0,49,0.00,,---,0.00,VWS V13.01,2013-08-03 23:16:00,
2013-08-03 18:21:00,74.8,54.9,30.06,NNW,338,1.0,6.0,50,0.00,,---,0.00,VWS V13.01,2013-08-03 23:21:00,
2013-08-03 18:26:00,74.7,55.4,30.06,NNW,339,1.0,6.0,51,0.00,,---,0.00,VWS V13.01,2013-08-03 23:26:00,
2013-08-03 18:31:00,74.5,55.7,30.06,North,355,4.0,5.0,52,0.00,,---,0.00,VWS V13.01,2013-08-03 23:31:00,
2013-08-03 18:36:00,74.5,55.7,30.06,North,5,4.0,7.0,52,0.00,,---,0.00,VWS V13.01,2013-08-03 23:36:00,
2013-08-03 18:41:00,74.3,55.0,30.06,NNW,348,3.0,4.0,51,0.00,,---,0.00,VWS V13.01,2013-08-03 23:41:00,
2013-08-03 18:46:00,74.2,55.5,30.06,North,350,3.0,5.0,52,0.00,,---,0.00,VWS V13.01,2013-08-03 23:46:00,
2013-08-03 18:51:00,74.0,55.8,30.06,NW,324,2.0,4.0,53,0.00,,---,0.00,VWS V13.01,2013-08-03 23:51:00,
2013-08-03 18:56:00,73.9,56.2,30.06,NNW,340,0.0,4.0,54,0.00,,---,0.00,VWS V13.01,2013-08-03 23:56:00,
2013-08-03 19:01:00,73.7,56.5,30.06,North,355,2.0,4.0,55,0.00,,---,0.00,VWS V13.01,2013-08-04 00:01:00,
2013-08-03 19:06:00,73.5,56.4,30.06,North,349,0.0,5.0,55,0.00,,---,0.00,VWS V13.01,2013-08-04 00:06:00,
2013-08-03 19:11:00,72.9,55.8,30.06,North,355,3.0,4.0,55,0.00,,---,0.00,VWS V13.01,2013-08-04 00:11:00,
2013-08-03 19:16:00,72.5,56.4,30.06,North,355,1.0,4.0,57,0.00,,---,0.00,VWS V13.01,2013-08-04 00:16:00,
2013-08-03 19:20:00,72.0,56.9,30.07,North,355,1.0,2.0,59,0.00,,---,0.00,VWS V13.01,2013-08-04 00:20:00,
2013-08-03 19:26:00,71.6,57.0,30.07,North,355,1.0,2.0,60,0.00,,---,0.00,VWS V13.01,2013-08-04 00:26:00,
2013-08-03 19:31:00,71.4,56.8,30.07,North,355,0.0,1.0,60,0.00,,---,0.00,VWS V13.01,2013-08-04 00:31:00,
2013-08-03 19:36:00,71.3,56.7,30.07,North,355,0.0,1.0,60,0.00,,---,0.00,VWS V13.01,2013-08-04 00:36:00,
2013-08-03 19:41:00,70.9,57.2,30.07,North,355,0.0,0.0,62,0.00,,---,0.00,VWS V13.01,2013-08-04 00:41:00,
2013-08-03 19:45:00,70.4,57.2,30.07,North,355,0.0,0.0,63,0.00,,---,0.00,VWS V13.01,2013-08-04 00:45:00,
2013-08-03 19:50:00,69.9,57.2,30.07,North,355,0.0,0.0,64,0.00,,---,0.00,VWS V13.01,2013-08-04 00:50:00,
2013-08-03 19:56:00,69.7,57.4,30.07,North,355,0.0,0.0,65,0.00,,---,0.00,VWS V13.01,2013-08-04 00:56:00,
2013-08-03 20:01:00,69.5,57.2,30.07,North,355,0.0,2.0,65,0.00,,---,0.00,VWS V13.01,2013-08-04 01:01:00,
2013-08-03 20:06:00,69.4,57.1,30.07,North,355,1.0,2.0,65,0.00,,---,0.00,VWS V13.01,2013-08-04 01:06:00,
2013-08-03 20:11:00,69.3,57.0,30.07,North,355,0.0,2.0,65,0.00,,---,0.00,VWS V13.01,2013-08-04 01:11:00,
2013-08-03 20:16:00,69.1,57.3,30.07,North,355,0.0,2.0,66,0.00,,---,0.00,VWS V13.01,2013-08-04 01:16:00,
2013-08-03 20:20:00,68.8,57.0,30.07,North,355,0.0,1.0,66,0.00,,---,0.00,VWS V13.01,2013-08-04 01:20:00,
2013-08-03 20:26:00,68.5,57.1,30.07,North,355,0.0,1.0,67,0.00,,---,0.00,VWS V13.01,2013-08-04 01:26:00,
2013-08-03 20:31:00,68.1,57.2,30.07,North,355,0.0,0.0,68,0.00,,---,0.00,VWS V13.01,2013-08-04 01:31:00,
2013-08-03 20:36:00,67.9,57.4,30.07,North,355,0.0,0.0,69,0.00,,---,0.00,VWS V13.01,2013-08-04 01:36:00,
2013-08-03 20:40:00,67.8,57.7,30.07,North,355,1.0,1.0,70,0.00,,---,0.00,VWS V13.01,2013-08-04 01:40:00,
2013-08-03 20:46:00,67.8,57.7,30.07,North,355,0.0,1.0,70,0.00,,---,0.00,VWS V13.01,2013-08-04 01:46:00,
2013-08-03 20:51:00,67.6,57.9,30.07,North,355,0.0,0.0,71,0.00,,---,0.00,VWS V13.01,2013-08-04 01:51:00,
2013-08-03 20:56:00,67.4,57.7,30.08,North,355,0.0,0.0,71,0.00,,---,0.00,VWS V13.01,2013-08-04 01:56:00,
2013-08-03 21:01:00,67.2,57.9,30.08,North,355,0.0,0.0,72,0.00,,---,0.00,VWS V13.01,2013-08-04 02:01:00,
2013-08-03 21:06:00,67.2,57.9,30.08,North,355,0.0,0.0,72,0.00,,---,0.00,VWS V13.01,2013-08-04 02:06:00,
2013-08-03 21:11:00,67.1,57.8,30.08,North,355,0.0,1.0,72,0.00,,---,0.00,VWS V13.01,2013-08-04 02:11:00,
2013-08-03 21:16:00,67.0,57.7,30.08,North,355,0.0,1.0,72,0.00,,---,0.00,VWS V13.01,2013-08-04 02:16:00,
2013-08-03 21:21:00,66.7,57.8,30.08,North,355,0.0,0.0,73,0.00,,---,0.00,VWS V13.01,2013-08-04 02:21:00,
2013-08-03 21:25:00,66.6,57.7,30.08,North,355,0.0,0.0,73,0.00,,---,0.00,VWS V13.01,2013-08-04 02:25:00,
2013-08-03 21:31:00,66.0,57.9,30.09,North,355,0.0,0.0,75,0.00,,---,0.00,VWS V13.01,2013-08-04 02:31:00,
2013-08-03 21:36:00,65.4,58.0,30.09,North,355,0.0,0.0,77,0.00,,---,0.00,VWS V13.01,2013-08-04 02:36:00,
2013-08-03 21:40:00,64.8,58.1,30.09,North,355,0.0,0.0,79,0.00,,---,0.00,VWS V13.01,2013-08-04 02:40:00,
2013-08-03 21:45:00,64.4,58.5,30.09,North,355,0.0,0.0,81,0.00,,---,0.00,VWS V13.01,2013-08-04 02:45:00,
2013-08-03 21:50:00,64.1,58.2,30.09,North,355,0.0,0.0,81,0.00,,---,0.00,VWS V13.01,2013-08-04 02:50:00,
2013-08-03 21:55:00,64.3,58.0,30.09,North,355,0.0,0.0,80,0.00,,---,0.00,VWS V13.01,2013-08-04 02:55:00,
2013-08-03 22:00:00,64.1,58.2,30.09,North,355,0.0,0.0,81,0.00,,---,0.00,VWS V13.01,2013-08-04 03:00:00,
2013-08-03 22:05:00,63.8,58.2,30.09,North,355,0.0,0.0,82,0.00,,---,0.00,VWS V13.01,2013-08-04 03:05:00,
2013-08-03 22:10:00,63.5,57.9,30.09,North,355,0.0,0.0,82,0.00,,---,0.00,VWS V13.01,2013-08-04 03:10:00,
2013-08-03 22:15:00,63.3,57.7,30.09,North,355,0.0,0.0,82,0.00,,---,0.00,VWS V13.01,2013-08-04 03:15:00,
2013-08-03 22:20:00,63.3,58.1,30.09,North,355,0.0,0.0,83,0.00,,---,0.00,VWS V13.01,2013-08-04 03:20:00,
2013-08-03 22:25:00,63.3,58.1,30.09,North,355,0.0,0.0,83,0.00,,---,0.00,VWS V13.01,2013-08-04 03:25:00,
2013-08-03 22:30:00,63.1,57.9,30.09,North,355,0.0,0.0,83,0.00,,---,0.00,VWS V13.01,2013-08-04 03:30:00,
2013-08-03 22:35:00,63.0,58.1,30.09,North,355,0.0,0.0,84,0.00,,---,0.00,VWS V13.01,2013-08-04 03:35:00,
2013-08-03 22:40:00,62.7,57.8,30.09,North,355,0.0,0.0,84,0.00,,---,0.00,VWS V13.01,2013-08-04 03:40:00,
2013-08-03 22:45:00,62.5,57.6,30.10,North,355,0.0,0.0,84,0.00,,---,0.00,VWS V13.01,2013-08-04 03:45:00,
2013-08-03 22:50:00,62.5,57.6,30.10,North,355,0.0,0.0,84,0.00,,---,0.00,VWS V13.01,2013-08-04 03:50:00,
2013-08-03 22:55:00,62.3,57.7,30.10,North,355,0.0,0.0,85,0.00,,---,0.00,VWS V13.01,2013-08-04 03:55:00,
2013-08-03 23:00:00,62.2,57.6,30.10,North,355,0.0,0.0,85,0.00,,---,0.00,VWS V13.01,2013-08-04 04:00:00,
2013-08-03 23:01:00,62.2,57.6,30.10,North,355,0.0,0.0,85,0.00,,---,0.00,VWS V13.01,2013-08-04 04:01:00,
2013-08-03 23:02:00,62.2,57.6,30.10,North,355,1.0,1.0,85,0.00,,---,0.00,VWS V13.01,2013-08-04 04:02:00,
2013-08-03 23:07:00,62.1,57.5,30.10,North,355,0.0,1.0,85,0.00,,---,0.00,VWS V13.01,2013-08-04 04:07:00,
2013-08-03 23:12:00,62.0,57.5,30.10,North,355,2.0,3.0,85,0.00,,---,0.00,VWS V13.01,2013-08-04 04:12:00,
2013-08-03 23:17:00,61.9,57.7,30.10,North,355,0.0,3.0,86,0.00,,---,0.00,VWS V13.01,2013-08-04 04:17:00,
2013-08-03 23:22:00,61.8,57.2,30.10,North,355,0.0,0.0,85,0.00,,---,0.00,VWS V13.01,2013-08-04 04:22:00,
2013-08-03 23:27:00,61.4,57.2,30.10,North,355,0.0,1.0,86,0.00,,---,0.00,VWS V13.01,2013-08-04 04:27:00,
2013-08-03 23:32:00,61.3,57.4,30.10,North,355,0.0,0.0,87,0.00,,---,0.00,VWS V13.01,2013-08-04 04:32:00,
2013-08-03 23:37:00,60.9,57.0,30.10,North,355,0.0,2.0,87,0.00,,---,0.00,VWS V13.01,2013-08-04 04:37:00,
2013-08-03 23:42:00,60.8,56.9,30.10,North,355,0.0,0.0,87,0.00,,---,0.00,VWS V13.01,2013-08-04 04:42:00,
2013-08-03 23:47:00,60.7,56.8,30.11,North,355,0.0,2.0,87,0.00,,---,0.00,VWS V13.01,2013-08-04 04:47:00,
2013-08-03 23:52:00,60.6,57.0,30.11,North,355,0.0,1.0,88,0.00,,---,0.00,VWS V13.01,2013-08-04 04:52:00,
2013-08-03 23:57:00,60.7,57.1,30.11,North,355,0.0,3.0,88,0.00,,---,0.00,VWS V13.01,2013-08-04 04:57:00,